DELTA 1 DEB, 7163

Orbit data source: Space-Track

DELTA 1 DEB, 7163 is space debris in SSO originally from a launch on Tue, 06 Nov 1973 UTC launched from the Air Force Western Test Range (AFWTR). Debris objects in space refer to the collection of defunct objects orbiting the Earth. Examples of debris include non-operational satellites, rocket bodies, and fragments generated from explosions, collisions, or faulty payload assembly.

Loading next visibility...
Identifier
7163, 1973-086EB
Orbit
SSO
Country
Flag of USUS
Related business
Manufacturer
Unknown
Mission
Spacecraft
Bus & Motor
Unknown
Mass
Unknown
Launch date (UTC)
1973-11-06 (52 years ago)
Launch vehicle
Unknown
Launch site
Air Force Western Test Range (AFWTR)
Object type
Payload
Rocket body
Debris
Shape & HBR
Unknown shape, 0.2 m
Radar Cross Section
Medium (>0.1 m² and <1 m²)

Expand to show TLE details & history
Last TLE update: 9 hours ago

TLE from 9 hours ago
0 DELTA 1 DEB
1  7163U 73086EB  26124.35601698 -.00000027  00000-0  16070-3 0  9991
2  7163 102.4545 150.0350 0064249 212.3925 167.2917 12.31352660358539
Epoch: 2026-05-04T08:32Z
TLE epoch observation values (Epoch: 2026-05-04T08:32:39.867Z)
Latitude
19.3611°
Longitude
155.19289°
Altitude
1,595.231 km
Speed
7.051 km/s
True Right ascension
09h 42m 25s
True Declination
19° 15' 54"
Sunlit
Object was in daylight at epoch
Visualization orbit readout
Latitude
Unknown
Longitude
Unknown
Altitude
Unknown
Speed
Unknown
Apparent Right ascension
Unknown
Apparent Declination
Unknown
Sunlit
N/A
Visualization observer readout
Local Sidereal Time
01:35:52
Azimuth
Unknown
Elevation
Unknown
Doppler factor
Unknown
Orbital elements
Apogee altitude
1,591.968 km
Perigee altitude
1,490.208 km
Semi-major axis
7,919.225 km
Eccentricity
0.00642
Inclination
102.4545°
RAAN
150.035°
Arg. of periapsis
212.3925°
True anomaly
167.4524°
Mean anomaly
167.2917°
Eccentric anomaly
167.37218°
Mean motion
3.07978 °/min
Orbital period
116.89 mins
BSTAR
0.0001607
Loading maneuver chart data...
Computing Atmospheric mass density...
Loading historical data...
Loading historical data...
Loading historical data...
Loading historical data...
Loading historical data...
Loading historical data...
Loading historical data...

Documentation

Showing up to 5 results
|